Location: Unspecified
(0.0000°N, 0.0000°E)
Time: 23:12:37
(UTC+00:00)

PAYLOAD G - Pass Details

Date: 09 August 2024
Orbit: 808 x 820 km, 98.7° (Epoch: 12 September)

Event Time Altitude Azimuth Distance (km) Brightness Sun altitude
Rises 05:34:42 0° 20° (NNE) 3,337 ? -7.4°
Reaches altitude 10° 05:37:04 10° 25° (NNE) 2,406 ? -6.8°
Maximum altitude 05:42:18 57° 103° (ESE) 959 ? -5.6°
Drops below altitude 10° 05:47:31 10° 180° (S) 2,410 ? -4.3°
Sets 05:49:54 0° 184° (S) 3,343 ? -3.8°
